Regional Weather Roundup
Issued by NWS Upton, NY

Current Version | Previous Version | Graphics & Text | Print | Product List | Glossary Off
Versions: 1 2 3 4 5 6 7 8 9 10 11 12 13 14 15 16 17 18 19 20 21 22 23 24 25 26 27 28 29 30 31 32 33 34 35 36 37 38 39 40 41 42 43 44 45 46 47 48 49 50

263
ASUS41 KOKX 111804
RWROKX

REGIONAL WEATHER ROUNDUP
NATIONAL WEATHER SERVICE NEW YORK NY
100 PM EST THU FEB 11 2016

NOTE: "FAIR" INDICATES FEW OR NO CLOUDS BELOW 12,000 FEET WITH NO
SIGNIFICANT WEATHER AND/OR OBSTRUCTIONS TO VISIBILITY.

NYZ071-072-176-178-NJZ106-104-111900-
NEW YORK CITY METRO AREA


CITY           SKY/WX    TMP DP  RH WIND       PRES   REMARKS
CENTRAL PARK   PTSUNNY   24  -3  30 NW8G33    29.91F WCI  15
LAGUARDIA APRT PTSUNNY   26   0  32 W29G38    29.90F WCI  10
KENNEDY INTL   CLOUDY    26  -1  31 W21G30    29.92S WCI  12
NEWARK/LIBERTY FLURRIES  26  -1  31 W24G33    29.92F WCI  11
BRNX BOT. GARD   N/A     25   0  33 W16       29.88F WCI  12
TETERBORO      CLOUDY    26  -2  29 W22G33    29.90F WCI  12
$$

NYZ177-179-078>081-111900-
LONG ISLAND NEW YORK

CITY           SKY/WX    TMP DP  RH WIND       PRES   REMARKS
FARMINGDALE    CLOUDY    27   1  32 NW20G31   29.88F WCI  13
ISLIP          PTSUNNY   25   1  35 W25G35    29.85F WCI   9
SHIRLEY        PTSUNNY   24   2  38 W15G31    29.86F WCI  11
RIVERHEAD        N/A     28  -4  24 W18       29.82F WCI  16
WESTHAMPTON    CLOUDY    25   3  38 W25G38    29.84F WCI   9
EAST HAMPTON   CLOUDY    24   1  37 NW17G30   29.82F WCI  10
MONTAUK POINT    N/A     25   7  46 W20G32    29.81S WCI  11
$$

NYZ052-065-067-111900-
HUDSON VALLEY

CITY           SKY/WX    TMP DP  RH WIND       PRES   REMARKS
WHITE PLAINS   CLOUDY    24   0  35 NW28G33   29.84F WCI   7
NEWBURGH       PTSUNNY   21   3  45 NW23G35   29.86S WCI   5
MONTGOMERY     CLOUDY    23   0  36 W20G29    29.86S WCI   8
POUGHKEEPSIE   CLOUDY    25   2  37 W22G31    29.86F WCI  10
ALBANY         PTSUNNY   21   0  39 W30G41    29.85S WCI   3
$$

NJZ001-105-106-008-010-013-015-019>022-104-111900-
NEW JERSEY

CITY           SKY/WX    TMP DP  RH WIND       PRES   REMARKS
NEWARK/LIBERTY FLURRIES  26  -1  31 W24G33    29.92F WCI  11
TETERBORO      CLOUDY    26  -2  29 W22G33    29.90F WCI  12
CALDWELL       CLOUDY    25  -4  28 NW17G25   29.90F WCI  12
MORRISTOWN     CLOUDY    25   3  39 W21       29.92F WCI  10
SOMERVILLE     CLOUDY    25   0  33 W16G30    29.93F WCI  12
SUSSEX         PTSUNNY   23   3  42 MISG      29.88F
ANDOVER        NOT AVBL
TRENTON        CLOUDY    24   1  36 NW17G31   29.95F WCI  11
MILLVILLE      CLOUDY    26   3  37 NW21G31   30.03F WCI  12
ATLANTIC CITY  PTSUNNY   27   4  37 W21G35    29.99F WCI  13
WRIGHTSTOWN    PTSUNNY   26  -1  31 NW23G32   29.94F WCI  11
TOMS RIVER     CLOUDY    28   0  29 W23G35    29.96F WCI  14
BELMAR         PTSUNNY   25   1  36 NW16G33   29.93F WCI  12
$$

PAZ047>061-062-071-111900-
EASTERN PENNSYLVANIA

CITY           SKY/WX    TMP DP  RH WIND       PRES   REMARKS
PHILADELPHIA   PTSUNNY   26  -4  27 W17G31    30.03S WCI  13
ALLENTOWN      CLOUDY    23   1  38 W18G28    29.95F WCI   9
SCRANTON       CLOUDY    18   3  52 NW15G28   29.89F WCI   4
$$

CTZ002-004>006-009-010-012-RIZ004-006-007-MAZ004-011-015-111900-
SOUTHERN NEW ENGLAND
 IN CT

CITY           SKY/WX    TMP DP  RH WIND       PRES   REMARKS
BRADLEY INTL   FLURRIES  22   5  48 W20G31    29.79S WCI   7
HARTFORD       CLOUDY    25  -1  32 W16G31    29.81F WCI  12
DANBURY        CLOUDY    22  -3  33 W14G23    29.83F WCI   9
WTRBRY/OXFORD  PTSUNNY   21  -4  33 W14G25    29.80S WCI   8
BRIDGEPORT     CLOUDY    27   3  35 W18G30    29.84F WCI  14
MERIDEN        PTSUNNY   24   0  35 W15G31    29.82F WCI  11
NEW HAVEN      PTSUNNY   25   6  44 W15G26    29.83F WCI  13
CHESTER        FAIR      27   0  31 W13G22    29.78F WCI  16
GROTON         CLOUDY    27   4  37 W21G30    29.78F WCI  13
WILLIMANTIC    CLOUDY    24   0  35 NW15G26   29.78F WCI  11

 IN RI

CITY           SKY/WX    TMP DP  RH WIND       PRES   REMARKS
PROVIDENCE       N/A     25   4  40 W17G29    29.75F WCI  12
BLOCK ISLAND   CLOUDY    27   9  46 W24G31    29.75F WCI  12
WESTERLY       CLOUDY    26   1  34 W8G22     29.77F WCI  18

 IN MA

CITY           SKY/WX    TMP DP  RH WIND       PRES   REMARKS
BOSTON         CLOUDY    26  12  55 W17G24    29.71F WCI  13
WORCESTER      CLOUDY    18   3  52 W14G26    29.68S WCI   4
WESTFIELD      CLOUDY    21   3  45 W18G32    29.78S WCI   6
PROVINCETOWN   LGT SNOW  26  22  84 W17G23    29.70F FOG     WCI  13
NANTUCKET      FLURRIES  30  19  63 W22G29    29.71F WCI  17
$$

ANZ330-335-338-340-345-350-353-355-111900-
COASTAL MARINE OBSERVATIONS


STATION/POSITION TIME  SKY/WX   TEMP    WIND        PRES    VSBY  WAVE
                                AIR SEA DIR/SP/G                  HT/PER
                 (UTC)          (F)     (DEG/KT/KT) (MB)    (MI)  (FT/S)
NY HARB ENTRANCE 1650            26 43  290/ 25/ 33 1012.3          4/ 5
4S FIRE IS       NOT AVBL
20S FIRE ISLAND  1650            26 44  290/ 25/ 33 1011.8          7/ 6
GREAT SOUTH BAY  NOT AVBL
23SW MTP         1750            26 46  280/ 25/ 35 1009.1          9/ 7
HUDSON CANYON    1650            28 48              1012.2         10/ 8
KINGS POINT      1700            25 37  340/ 21/ 26 1012.1
EXECUTION ROCKS  NOT AVBL
CENTRAL LI SOUND 1730            25     280/ 21/ 27   N/A           5/ 6
EASTERN LI SOUND 1700            28 41  290/ 17/ 25   N/A
ROBBINS REEF     1700            22     270/ 24/ 28 1012.3
$$


>>>>>>>>>>>>>>>>>>>>>>>>>>>> KEY <<<<<<<<<<<<<<<<<<<<<<<<<<<
>                                                          <
>     SKY/WX - SKY CONDITION/PRESENT WEATHER               <
>     TMP    - TEMPERATURE IN FAHRENHEIT                   <
>     DP     - DEWPOINT IN FAHRENHEIT                      <
>     RH     - RELATIVE HUMIDITY IN PERCENT                <
>     WIND   - DIRECTION AND SPEED IN MPH                  <
>     PRES   - MEAN SEA LEVEL PRESSURE IN INCHES OF HG     <
>     WCI    - WIND CHILL INDEX                            <
>     VSB    - VISIBILITY IN MILES                         <
>     HX     - HEAT INDEX                                  <
>     TC     - TEMPERATURE IN CELSIUS                      <
>     VRB    - VARIABLE WIND DIRECTION                     <
>                                                          <
>>>>>>>>>>>>>>>>>>>>>>>>>>>> KEY <<<<<<<<<<<<<<<<<<<<<<<<<<<






USA.gov is the U.S. government's official web portal to all federal, state and local government web resources and services.